SKW3764 CYVR-KSEA

Flight info

Callsign SKW3764
Flight time 0h 31m
Altitude 15000
Route ROESH MARNR8
Aircraft CRJ9/M-SDFGIRWY/S

Departure

Time 2026-05-03 22:16
Airport Vancouver International Airport (CYVR)

Arrival

Time 2026-05-03 22:47
Airport Seattle–Tacoma International Airport (KSEA)
Time Latitude Longitude Altitude Speed Heading
2026-05-03 21:40 49.19642 -123.17577 21 ft 0 kts 331°
2026-05-03 21:58 49.19636 -123.17572 21 ft 3 kts 336°
2026-05-03 21:59 49.19620 -123.17562 21 ft 3 kts 349°
2026-05-03 21:59 49.19602 -123.17565 21 ft 3 kts 26°
2026-05-03 21:59 49.19587 -123.17583 21 ft 3 kts 49°
2026-05-03 21:59 49.19577 -123.17602 21 ft 1 kts 52°
2026-05-03 22:00 49.19578 -123.17602 21 ft 0 kts 52°
2026-05-03 22:01 49.19578 -123.17601 21 ft 0 kts 52°
2026-05-03 22:03 49.19595 -123.17568 21 ft 8 kts 50°
2026-05-03 22:03 49.19636 -123.17468 21 ft 15 kts 73°
2026-05-03 22:04 49.19650 -123.17284 21 ft 16 kts 97°
2026-05-03 22:04 49.19678 -123.17203 21 ft 7 kts 28°
2026-05-03 22:04 49.19734 -123.17190 21 ft 10 kts
2026-05-03 22:04 49.19810 -123.17189 21 ft 12 kts 359°
2026-05-03 22:05 49.19889 -123.17227 21 ft 13 kts 306°
2026-05-03 22:05 49.19918 -123.17360 21 ft 14 kts 274°
2026-05-03 22:05 49.19917 -123.17462 21 ft 15 kts 267°
2026-05-03 22:05 49.19922 -123.17632 21 ft 17 kts 278°
2026-05-03 22:06 49.19966 -123.17869 21 ft 18 kts 295°
2026-05-03 22:06 49.19998 -123.18064 21 ft 20 kts 280°
2026-05-03 22:06 49.20024 -123.18275 21 ft 21 kts 279°
2026-05-03 22:06 49.20044 -123.18474 21 ft 14 kts 273°
2026-05-03 22:07 49.20015 -123.18529 21 ft 9 kts 189°
2026-05-03 22:07 49.19943 -123.18546 21 ft 12 kts 188°
2026-05-03 22:07 49.19849 -123.18570 21 ft 15 kts 189°
2026-05-03 22:07 49.19739 -123.18613 21 ft 18 kts 212°
2026-05-03 22:08 49.19616 -123.18678 21 ft 20 kts 184°
2026-05-03 22:08 49.19434 -123.18720 21 ft 15 kts 161°
2026-05-03 22:08 49.19359 -123.18690 21 ft 18 kts 181°
2026-05-03 22:08 49.19229 -123.18726 21 ft 13 kts 191°
2026-05-03 22:09 49.19139 -123.18669 21 ft 17 kts 142°
2026-05-03 22:09 49.19033 -123.18542 21 ft 22 kts 142°
2026-05-03 22:09 49.18946 -123.18383 21 ft 20 kts 98°
2026-05-03 22:10 49.18896 -123.17924 21 ft 23 kts 99°
2026-05-03 22:10 49.18868 -123.17679 21 ft 24 kts 100°
2026-05-03 22:10 49.18840 -123.17437 21 ft 21 kts 98°
2026-05-03 22:10 49.18821 -123.17245 21 ft 16 kts 99°
2026-05-03 22:11 49.18804 -123.17102 21 ft 13 kts 100°
2026-05-03 22:11 49.18789 -123.16970 21 ft 13 kts 100°
2026-05-03 22:11 49.18771 -123.16820 21 ft 17 kts 100°
2026-05-03 22:11 49.18748 -123.16621 21 ft 22 kts 99°
2026-05-03 22:12 49.18717 -123.16373 21 ft 24 kts 102°
2026-05-03 22:12 49.18661 -123.16224 21 ft 12 kts 135°
2026-05-03 22:12 49.18620 -123.16163 21 ft 5 kts 136°
2026-05-03 22:12 49.18608 -123.16145 21 ft 1 kts 136°
2026-05-03 22:13 49.18590 -123.16119 21 ft 8 kts 136°
2026-05-03 22:13 49.18528 -123.16048 21 ft 15 kts 169°
2026-05-03 22:13 49.18475 -123.16070 21 ft 7 kts 263°
2026-05-03 22:13 49.18476 -123.16100 21 ft 0 kts 276°
2026-05-03 22:15 49.18481 -123.16154 21 ft 14 kts 279°
2026-05-03 22:16 49.18530 -123.16596 21 ft 76 kts 279°
2026-05-03 22:16 49.18662 -123.17753 22 ft 144 kts 280°
2026-05-03 22:16 49.18845 -123.19419 550 ft 160 kts 279°
2026-05-03 22:16 49.19001 -123.21072 1442 ft 162 kts 275°
2026-05-03 22:17 49.18907 -123.22869 2102 ft 178 kts 261°
2026-05-03 22:17 49.18707 -123.24756 2887 ft 182 kts 262°
2026-05-03 22:17 49.18530 -123.26713 3452 ft 186 kts 263°
2026-05-03 22:17 49.18365 -123.28699 4006 ft 190 kts 261°
2026-05-03 22:18 49.17793 -123.30530 4457 ft 197 kts 225°
2026-05-03 22:18 49.16549 -123.31484 4816 ft 216 kts 190°
2026-05-03 22:18 49.14977 -123.31293 5121 ft 239 kts 169°
2026-05-03 22:18 49.13302 -123.30755 5654 ft 253 kts 162°
2026-05-03 22:19 49.11635 -123.29773 6362 ft 261 kts 156°
2026-05-03 22:19 49.09973 -123.28632 7070 ft 269 kts 155°
2026-05-03 22:19 49.08239 -123.27474 7793 ft 276 kts 157°
2026-05-03 22:19 49.06447 -123.26375 8520 ft 280 kts 159°
2026-05-03 22:20 49.04607 -123.25325 9262 ft 284 kts 160°
2026-05-03 22:20 49.02736 -123.24286 9988 ft 289 kts 159°
2026-05-03 22:20 49.00828 -123.23214 10599 ft 299 kts 159°
2026-05-03 22:20 48.98816 -123.22078 10954 ft 317 kts 159°
2026-05-03 22:21 48.96706 -123.20883 11423 ft 329 kts 159°
2026-05-03 22:21 48.94537 -123.19657 11985 ft 338 kts 159°
2026-05-03 22:21 48.92313 -123.18401 12609 ft 343 kts 159°
2026-05-03 22:21 48.90088 -123.17126 13240 ft 349 kts 159°
2026-05-03 22:22 48.87800 -123.15818 13895 ft 354 kts 159°
2026-05-03 22:22 48.85478 -123.14507 14613 ft 358 kts 159°
2026-05-03 22:22 48.83123 -123.13183 14973 ft 365 kts 159°
2026-05-03 22:22 48.80730 -123.11822 14985 ft 370 kts 159°
2026-05-03 22:23 48.78303 -123.10451 14987 ft 374 kts 159°
2026-05-03 22:23 48.75845 -123.09071 14988 ft 379 kts 159°
2026-05-03 22:23 48.73358 -123.07678 14989 ft 383 kts 159°
2026-05-03 22:23 48.70847 -123.06258 14989 ft 388 kts 159°
2026-05-03 22:24 48.68340 -123.04840 14990 ft 392 kts 159°
2026-05-03 22:24 48.65777 -123.03397 14991 ft 395 kts 159°
2026-05-03 22:24 48.63164 -123.02022 14991 ft 399 kts 162°
2026-05-03 22:24 48.60476 -123.00893 14991 ft 403 kts 166°
2026-05-03 22:25 48.57723 -123.00050 14991 ft 406 kts 169°
2026-05-03 22:25 48.54922 -122.99379 14991 ft 409 kts 171°
2026-05-03 22:25 48.52109 -122.98729 14990 ft 407 kts 171°
2026-05-03 22:25 48.49332 -122.98010 14988 ft 402 kts 169°
2026-05-03 22:26 48.46607 -122.97222 14987 ft 396 kts 168°
2026-05-03 22:26 48.43955 -122.96417 14986 ft 392 kts 168°
2026-05-03 22:26 48.41302 -122.95614 14985 ft 387 kts 168°
2026-05-03 22:26 48.38672 -122.94847 15003 ft 382 kts 168°
2026-05-03 22:27 48.36071 -122.94103 15012 ft 378 kts 168°
2026-05-03 22:27 48.33497 -122.93374 15014 ft 376 kts 169°
2026-05-03 22:27 48.30924 -122.92647 15015 ft 377 kts 169°
2026-05-03 22:27 48.28341 -122.91919 15016 ft 378 kts 169°
2026-05-03 22:28 48.25747 -122.91188 15012 ft 380 kts 169°
2026-05-03 22:28 48.23148 -122.90456 15012 ft 381 kts 169°
2026-05-03 22:28 48.20567 -122.89728 15012 ft 383 kts 169°
2026-05-03 22:28 48.17946 -122.88988 15011 ft 384 kts 169°
2026-05-03 22:29 48.15315 -122.88245 15008 ft 385 kts 169°
2026-05-03 22:29 48.12676 -122.87499 15006 ft 386 kts 169°
2026-05-03 22:29 48.10035 -122.86752 15003 ft 388 kts 169°
2026-05-03 22:29 48.07378 -122.86000 15000 ft 389 kts 169°
2026-05-03 22:30 48.04718 -122.85237 14998 ft 389 kts 169°
2026-05-03 22:30 48.02147 -122.84101 14994 ft 386 kts 154°
2026-05-03 22:30 47.99856 -122.82143 15003 ft 385 kts 145°
2026-05-03 22:30 47.97687 -122.79795 15002 ft 386 kts 142°
2026-05-03 22:31 47.95526 -122.77409 15000 ft 387 kts 143°
2026-05-03 22:31 47.93286 -122.75175 15000 ft 388 kts 147°
2026-05-03 22:31 47.90954 -122.73163 15002 ft 388 kts 149°
2026-05-03 22:31 47.88617 -122.71152 15001 ft 387 kts 149°
2026-05-03 22:32 47.86332 -122.69160 14817 ft 373 kts 148°
2026-05-03 22:32 47.84149 -122.67213 14563 ft 360 kts 148°
2026-05-03 22:32 47.82043 -122.65312 14302 ft 350 kts 148°
2026-05-03 22:32 47.80015 -122.63470 13985 ft 343 kts 148°
2026-05-03 22:33 47.78001 -122.61639 13624 ft 337 kts 148°
2026-05-03 22:33 47.76007 -122.59857 13248 ft 333 kts 148°
2026-05-03 22:33 47.74030 -122.58104 12871 ft 329 kts 148°
2026-05-03 22:33 47.72073 -122.56380 12494 ft 325 kts 149°
2026-05-03 22:34 47.70080 -122.54820 12119 ft 322 kts 153°
2026-05-03 22:34 47.68051 -122.53442 11744 ft 320 kts 156°
2026-05-03 22:34 47.66018 -122.52139 11368 ft 317 kts 156°
2026-05-03 22:34 47.64027 -122.50846 10996 ft 315 kts 155°
2026-05-03 22:35 47.62036 -122.49508 10622 ft 314 kts 155°
2026-05-03 22:35 47.60090 -122.48174 10268 ft 301 kts 155°
2026-05-03 22:35 47.58231 -122.46883 10013 ft 288 kts 156°
2026-05-03 22:35 47.56303 -122.46224 9660 ft 283 kts 173°
2026-05-03 22:36 47.54346 -122.46105 9284 ft 281 kts 180°
2026-05-03 22:36 47.52405 -122.46220 8918 ft 278 kts 182°
2026-05-03 22:36 47.50479 -122.46371 8622 ft 275 kts 182°
2026-05-03 22:36 47.48615 -122.46468 8320 ft 268 kts 181°
2026-05-03 22:37 47.46772 -122.46499 8018 ft 262 kts 179°
2026-05-03 22:37 47.44965 -122.46504 7714 ft 257 kts 179°
2026-05-03 22:37 47.43196 -122.46514 7443 ft 253 kts 179°
2026-05-03 22:37 47.41442 -122.46528 7206 ft 250 kts 179°
2026-05-03 22:38 47.39727 -122.46548 7108 ft 241 kts 179°
2026-05-03 22:38 47.38056 -122.46569 6819 ft 241 kts 179°
2026-05-03 22:38 47.36387 -122.46573 6449 ft 239 kts 179°
2026-05-03 22:38 47.34733 -122.46572 6074 ft 237 kts 179°
2026-05-03 22:39 47.33090 -122.46593 5704 ft 235 kts 179°
2026-05-03 22:39 47.31495 -122.46614 5339 ft 230 kts 179°
2026-05-03 22:39 47.29904 -122.46624 4964 ft 227 kts 179°
2026-05-03 22:39 47.28335 -122.46649 4590 ft 224 kts 180°
2026-05-03 22:40 47.26783 -122.46697 4217 ft 222 kts 180°
2026-05-03 22:40 47.25278 -122.46746 4060 ft 211 kts 180°
2026-05-03 22:40 47.23842 -122.46791 3986 ft 201 kts 179°
2026-05-03 22:40 47.22546 -122.46264 3981 ft 190 kts 146°
2026-05-03 22:41 47.21784 -122.44762 3976 ft 185 kts 107°
2026-05-03 22:41 47.21572 -122.42941 4002 ft 184 kts 97°
2026-05-03 22:41 47.21425 -122.41057 3993 ft 186 kts 96°
2026-05-03 22:41 47.21286 -122.39151 3989 ft 188 kts 95°
2026-05-03 22:42 47.21166 -122.37226 3984 ft 190 kts 92°
2026-05-03 22:42 47.21314 -122.35320 3962 ft 189 kts 68°
2026-05-03 22:42 47.22093 -122.33776 4018 ft 191 kts 47°
2026-05-03 22:42 47.23121 -122.32488 3977 ft 199 kts 27°
2026-05-03 22:43 47.24481 -122.32027 4011 ft 203 kts
2026-05-03 22:43 47.25877 -122.31859 3986 ft 197 kts
2026-05-03 22:43 47.27167 -122.31832 3971 ft 180 kts
2026-05-03 22:43 47.28428 -122.31868 3679 ft 185 kts 359°
2026-05-03 22:44 47.29733 -122.31907 3308 ft 189 kts 360°
2026-05-03 22:44 47.31016 -122.31918 3216 ft 178 kts
2026-05-03 22:44 47.32256 -122.31910 3104 ft 181 kts
2026-05-03 22:44 47.33542 -122.31893 2858 ft 185 kts
2026-05-03 22:45 47.34810 -122.31879 2494 ft 178 kts
2026-05-03 22:45 47.36006 -122.31872 2148 ft 166 kts 360°
2026-05-03 22:45 47.37112 -122.31872 1816 ft 156 kts 360°
2026-05-03 22:45 47.38168 -122.31879 1510 ft 147 kts 359°
2026-05-03 22:46 47.39170 -122.31862 1290 ft 143 kts
2026-05-03 22:46 47.40173 -122.31837 1147 ft 146 kts
2026-05-03 22:46 47.41208 -122.31834 1032 ft 152 kts
2026-05-03 22:46 47.42266 -122.31828 861 ft 149 kts
2026-05-03 22:47 47.43281 -122.31821 619 ft 142 kts
2026-05-03 22:47 47.44264 -122.31807 448 ft 139 kts 360°
2026-05-03 22:47 47.45141 -122.31804 441 ft 110 kts 360°
2026-05-03 22:47 47.45626 -122.31797 440 ft 40 kts
2026-05-03 22:48 47.45860 -122.31721 440 ft 31 kts 28°
2026-05-03 22:48 47.45974 -122.31591 440 ft 14 kts 57°
2026-05-03 22:48 47.46012 -122.31444 440 ft 17 kts 77°
2026-05-03 22:48 47.46015 -122.31258 440 ft 20 kts 89°
2026-05-03 22:49 47.46012 -122.31038 440 ft 23 kts 91°
2026-05-03 22:49 47.46011 -122.30933 440 ft 7 kts 90°
2026-05-03 22:49 47.46011 -122.30868 440 ft 8 kts 90°
2026-05-03 22:49 47.46010 -122.30771 440 ft 12 kts 90°
2026-05-03 22:50 47.45996 -122.30644 440 ft 11 kts 136°
2026-05-03 22:50 47.45929 -122.30622 440 ft 11 kts 177°
2026-05-03 22:50 47.45835 -122.30622 440 ft 18 kts 180°
2026-05-03 22:50 47.45678 -122.30623 440 ft 27 kts 180°
2026-05-03 22:51 47.45461 -122.30624 440 ft 34 kts 180°
2026-05-03 22:51 47.45240 -122.30626 440 ft 30 kts 180°
2026-05-03 22:51 47.45044 -122.30628 440 ft 26 kts 180°
2026-05-03 22:51 47.44873 -122.30630 440 ft 23 kts 180°
2026-05-03 22:52 47.44714 -122.30632 440 ft 23 kts 180°
2026-05-03 22:52 47.44556 -122.30633 440 ft 22 kts 180°
2026-05-03 22:52 47.44415 -122.30633 440 ft 16 kts 180°
2026-05-03 22:52 47.44341 -122.30574 440 ft 12 kts 130°
2026-05-03 22:53 47.44286 -122.30543 440 ft 7 kts 171°
2026-05-03 22:53 47.44251 -122.30510 440 ft 8 kts 120°
2026-05-03 22:53 47.44229 -122.30442 440 ft 0 kts 115°
2026-05-03 22:54 47.44229 -122.30441 440 ft 0 kts 115°